| time (UTC) | temp F | wind direction | speed MPH | gust MPH | rain 1hr in | rain 24hr in | rain mn in | humidity % | barometer mb |
| 20260508114545 | 53 | 178 | 0.0 | 1.0 | 0.00 | 0.00 | 0.00 | 85 | 1013.2 |
| 20260508113031 | 53 | 173 | 0.0 | 1.0 | 0.00 | 0.00 | 0.00 | 85 | 1013.2 |
| 20260508111530 | 53 | 173 | 0.0 | 1.0 | 0.00 | 0.00 | 0.00 | 84 | 1013.1 |
| 20260508110032 | 54 | 173 | 0.0 | 1.0 | 0.00 | 0.00 | 0.00 | 83 | 1013.1 |
| 20260508104530 | 54 | 172 | 0.0 | 2.0 | 0.00 | 0.00 | 0.00 | 83 | 1013.1 |
| 20260508103033 | 54 | 173 | 0.0 | 2.0 | 0.00 | 0.00 | 0.00 | 82 | 1013.1 |
| 20260508101524 | 55 | 173 | 0.0 | 2.0 | 0.00 | 0.00 | 0.00 | 81 | 1013.0 |
| 20260508100022 | 55 | 173 | 0.0 | 2.0 | 0.00 | 0.00 | 0.00 | 81 | 1012.8 |
| 20260508094523 | 55 | 172 | 0.0 | 2.0 | 0.00 | 0.00 | 0.00 | 80 | 1012.6 |
| 20260508093033 | 56 | 173 | 1.0 | 3.0 | 0.00 | 0.00 | 0.00 | 80 | 1012.7 |
| 20260508091528 | 56 | 172 | 1.0 | 3.0 | 0.00 | 0.00 | 0.00 | 79 | 1012.7 |
| 20260508090016 | 56 | 172 | 1.0 | 4.0 | 0.00 | 0.00 | 0.00 | 79 | 1012.7 |
| 20260508084514 | 56 | 168 | 1.0 | 3.0 | 0.00 | 0.00 | 0.00 | 78 | 1012.8 |
| 20260508083012 | 56 | 168 | 1.0 | 2.0 | 0.00 | 0.00 | 0.00 | 77 | 1012.9 |
| 20260508081512 | 57 | 168 | 0.0 | 3.0 | 0.00 | 0.00 | 0.00 | 75 | 1013.0 |
| 20260508080009 | 57 | 169 | 0.0 | 2.0 | 0.00 | 0.00 | 0.00 | 75 | 1013.2 |
| 20260508074511 | 58 | 168 | 1.0 | 3.0 | 0.00 | 0.00 | 0.00 | 74 | 1013.2 |
| 20260508073005 | 58 | 171 | 1.0 | 4.0 | 0.00 | 0.00 | 0.00 | 73 | 1013.3 |
| 20260508071507 | 58 | 166 | 2.0 | 5.0 | 0.00 | 0.00 | 0.00 | 72 | 1013.7 |
| 20260508070100 | 59 | 162 | 2.0 | 5.0 | 0.00 | 0.00 | 0.00 | 71 | 1013.8 |
| 20260508064558 | 59 | 172 | 1.0 | 5.0 | 0.00 | 0.00 | 0.00 | 71 | 1014.0 |
| 20260508063104 | 59 | 174 | 1.0 | 4.0 | 0.00 | 0.00 | 0.00 | 69 | 1014.2 |
| 20260508061553 | 60 | 360 | 2.0 | 4.0 | 0.00 | 0.00 | 0.00 | 68 | 1014.2 |
| 20260508060050 | 60 | 360 | 2.0 | 8.0 | 0.00 | 0.00 | 0.00 | 67 | 1014.3 |
| 20260508054551 | 61 | 360 | 3.0 | 6.0 | 0.00 | 0.00 | 0.00 | 65 | 1014.2 |
| 20260508053048 | 62 | 178 | 4.0 | 6.0 | 0.00 | 0.00 | 0.00 | 62 | 1014.2 |
| 20260508051543 | 62 | 171 | 4.0 | 7.0 | 0.00 | 0.00 | 0.00 | 60 | 1014.4 |
| 20260508050042 | 62 | 178 | 3.0 | 8.0 | 0.00 | 0.00 | 0.00 | 58 | 1014.4 |
| 20260508044540 | 63 | 163 | 3.0 | 7.0 | 0.00 | 0.00 | 0.00 | 58 | 1014.5 |
| 20260508043053 | 63 | 167 | 3.0 | 6.0 | 0.00 | 0.00 | 0.00 | 56 | 1014.5 |
| 20260508041548 | 63 | 158 | 2.0 | 7.0 | 0.00 | 0.00 | 0.00 | 56 | 1014.5 |
| 20260508040040 | 63 | 161 | 2.0 | 5.0 | 0.00 | 0.00 | 0.00 | 56 | 1014.6 |
| 20260508034538 | 64 | 161 | 2.0 | 5.0 | 0.00 | 0.00 | 0.00 | 55 | 1014.6 |
| 20260508033038 | 64 | 161 | 2.0 | 5.0 | 0.00 | 0.00 | 0.00 | 54 | 1014.5 |
| 20260508031537 | 65 | 161 | 1.0 | 5.0 | 0.00 | 0.00 | 0.00 | 53 | 1014.6 |
| 20260508030041 | 66 | 159 | 2.0 | 6.0 | 0.00 | 0.00 | 0.00 | 52 | 1014.5 |
| 20260508024540 | 66 | 159 | 2.0 | 6.0 | 0.00 | 0.00 | 0.00 | 51 | 1014.5 |
| 20260508023035 | 67 | 164 | 1.0 | 6.0 | 0.00 | 0.00 | 0.00 | 50 | 1014.4 |
| 20260508021540 | 67 | 159 | 1.0 | 5.0 | 0.00 | 0.00 | 0.00 | 49 | 1014.3 |
| 20260508020044 | 68 | 163 | 1.0 | 3.0 | 0.00 | 0.00 | 0.00 | 47 | 1014.1 |
| 20260508014534 | 69 | 163 | 1.0 | 3.0 | 0.00 | 0.00 | 0.00 | 45 | 1014.1 |
| 20260508013039 | 70 | 163 | 1.0 | 3.0 | 0.00 | 0.00 | 0.00 | 43 | 1013.8 |
| 20260508011533 | 71 | 360 | 2.0 | 4.0 | 0.00 | 0.00 | 0.00 | 39 | 1014.0 |
| 20260508010035 | 72 | 360 | 0.0 | 3.0 | 0.00 | 0.00 | 0.00 | 38 | 1014.0 |
| 20260508004533 | 72 | 360 | 2.0 | 4.0 | 0.00 | 0.00 | 0.00 | 36 | 1014.0 |
| 20260508003031 | 73 | 360 | 1.0 | 4.0 | 0.00 | 0.00 | 0.00 | 37 | 1013.9 |
| 20260508001556 | 73 | 360 | 1.0 | 2.0 | 0.00 | 0.00 | 0.00 | 36 | 1013.7 |
| 20260508000029 | 73 | 360 | 1.0 | 4.0 | 0.00 | 0.00 | 0.00 | 36 | 1013.6 |
| 20260507234533 | 74 | 360 | 1.0 | 3.0 | 0.00 | 0.00 | 0.00 | 37 | 1013.6 |
| 20260507233026 | 74 | 360 | 0.0 | 2.0 | 0.00 | 0.00 | 0.00 | 36 | 1014.0 |
| 20260507231533 | 74 | 360 | 0.0 | 2.0 | 0.00 | 0.00 | 0.00 | 37 | 1014.0 |
| 20260507230026 | 74 | 360 | 1.0 | 3.0 | 0.00 | 0.00 | 0.00 | 35 | 1014.1 |
| 20260507224531 | 74 | 360 | 1.0 | 3.0 | 0.00 | 0.00 | 0.00 | 36 | 1014.5 |
| 20260507223018 | 73 | 360 | 1.0 | 3.0 | 0.00 | 0.00 | 0.00 | 35 | 1014.5 |
| 20260507221516 | 73 | 360 | 1.0 | 3.0 | 0.00 | 0.00 | 0.00 | 38 | 1014.6 |
| 20260507220030 | 73 | 360 | 1.0 | 2.0 | 0.00 | 0.00 | 0.00 | 38 | 1014.7 |
| 20260507214515 | 73 | 360 | 1.0 | 3.0 | 0.00 | 0.00 | 0.00 | 38 | 1014.7 |
| 20260507213013 | 73 | 360 | 0.0 | 3.0 | 0.00 | 0.00 | 0.00 | 39 | 1014.7 |
| 20260507211509 | 72 | 360 | 1.0 | 5.0 | 0.00 | 0.00 | 0.00 | 37 | 1014.8 |
| 20260507210007 | 72 | 360 | 2.0 | 5.0 | 0.00 | 0.00 | 0.00 | 37 | 1015.3 |
| 20260507204505 | 72 | 360 | 1.0 | 3.0 | 0.00 | 0.00 | 0.00 | 42 | 1015.4 |
| 20260507203007 | 72 | 360 | 1.0 | 5.0 | 0.00 | 0.00 | 0.00 | 40 | 1015.8 |
| 20260507201601 | 72 | 360 | 1.0 | 6.0 | 0.00 | 0.00 | 0.00 | 42 | 1016.1 |
| 20260507200109 | 71 | 360 | 1.0 | 4.0 | 0.00 | 0.00 | 0.00 | 41 | 1016.4 |
| 20260507194556 | 70 | 360 | 1.0 | 4.0 | 0.00 | 0.00 | 0.00 | 42 | 1016.5 |
| 20260507193055 | 70 | 360 | 1.0 | 4.0 | 0.00 | 0.00 | 0.00 | 41 | 1016.8 |
| 20260507191557 | 70 | 360 | 2.0 | 4.0 | 0.00 | 0.00 | 0.00 | 42 | 1017.0 |
| 20260507190056 | 70 | 360 | 1.0 | 4.0 | 0.00 | 0.00 | 0.00 | 43 | 1017.1 |
| 20260507184552 | 69 | 360 | 1.0 | 8.0 | 0.00 | 0.00 | 0.00 | 43 | 1017.4 |
| 20260507183047 | 69 | 360 | 1.0 | 6.0 | 0.00 | 0.00 | 0.00 | 49 | 1017.6 |
| 20260507181547 | 69 | 204 | 2.0 | 7.0 | 0.00 | 0.00 | 0.00 | 48 | 1018.2 |
| 20260507180043 | 68 | 202 | 2.0 | 3.0 | 0.00 | 0.00 | 0.00 | 44 | 1018.4 |
| 20260507174547 | 70 | 360 | 1.0 | 5.0 | 0.00 | 0.00 | 0.00 | 48 | 1018.7 |
| 20260507173039 | 68 | 360 | 1.0 | 6.0 | 0.00 | 0.00 | 0.00 | 49 | 1018.9 |
| 20260507171538 | 67 | 213 | 0.0 | 3.0 | 0.00 | 0.00 | 0.00 | 52 | 1019.3 |
| 20260507170043 | 67 | 234 | 2.0 | 7.0 | 0.00 | 0.00 | 0.00 | 47 | 1019.6 |
| 20260507164534 | 67 | 159 | 1.0 | 6.0 | 0.00 | 0.00 | 0.00 | 55 | 1019.8 |
| 20260507163034 | 67 | 360 | 2.0 | 5.0 | 0.00 | 0.00 | 0.00 | 46 | 1019.8 |
| 20260507161530 | 67 | 360 | 1.0 | 4.0 | 0.00 | 0.00 | 0.00 | 56 | 1019.9 |
| 20260507160033 | 67 | 360 | 2.0 | 5.0 | 0.00 | 0.00 | 0.00 | 53 | 1020.1 |
| 20260507154525 | 65 | 360 | 0.0 | 3.0 | 0.00 | 0.00 | 0.00 | 48 | 1020.1 |
| 20260507153022 | 65 | 173 | 1.0 | 5.0 | 0.00 | 0.00 | 0.00 | 52 | 1020.2 |
| 20260507151516 | 65 | 164 | 2.0 | 4.0 | 0.00 | 0.00 | 0.00 | 51 | 1020.7 |
| 20260507150013 | 66 | 163 | 1.0 | 6.0 | 0.00 | 0.00 | 0.00 | 51 | 1020.9 |
| 20260507144511 | 64 | 360 | 1.0 | 4.0 | 0.00 | 0.00 | 0.00 | 51 | 1020.9 |
| 20260507143008 | 64 | 157 | 0.0 | 5.0 | 0.00 | 0.00 | 0.00 | 53 | 1021.1 |
| 20260507141504 | 63 | 156 | 0.0 | 2.0 | 0.00 | 0.00 | 0.00 | 53 | 1021.2 |
| 20260507140103 | 61 | 360 | 0.0 | 1.0 | 0.00 | 0.00 | 0.00 | 58 | 1021.3 |
| 20260507134557 | 59 | 142 | 0.0 | 1.0 | 0.00 | 0.00 | 0.00 | 62 | 1021.4 |
| 20260507133055 | 56 | 360 | 0.0 | 1.0 | 0.00 | 0.00 | 0.00 | 67 | 1021.4 |
| 20260507131558 | 53 | 143 | 0.0 | 0.0 | 0.00 | 0.00 | 0.00 | 74 | 1021.3 |
| 20260507130053 | 50 | 360 | 0.0 | 0.0 | 0.00 | 0.00 | 0.00 | 79 | 1021.3 |
| 20260507124538 | 48 | 142 | 0.0 | 0.0 | 0.00 | 0.00 | 0.00 | 82 | 1021.2 |
| 20260507123034 | 47 | 142 | 0.0 | 0.0 | 0.00 | 0.00 | 0.00 | 82 | 1021.0 |
| 20260507121531 | 46 | 142 | 0.0 | 0.0 | 0.00 | 0.00 | 0.00 | 82 | 1020.8 |
| 20260507120037 | 46 | 138 | 0.0 | 0.0 | 0.00 | 0.00 | 0.00 | 81 | 1020.7 |